416P/Scotti (2013)

Japanese version
Home page
Updated on February 17, 2021

---------------------------------------------------------------------

* Profile

Designation 416P/2013 A2
Discovery Date January 6, 2013
Magnitude 19.5 mag
Discoverer J. V. Scotti (Spacewatch, Kitt Peak)

* Pictures

* Orbital Elements

Epoch 2013 Jan. 28.0 TT = JDT 2456320.5                                         
T 2013 Feb. 7.28004 TT                                  Rudenko                 
q   2.1773745            (2000.0)            P               Q                  
n   0.12313797     Peri.  134.49923     -0.64744077     -0.76210389             
a   4.0013640      Node   355.84299     +0.68151229     -0.57645687             
e   0.4558419      Incl.    3.36610     +0.34111793     -0.29477982             
P   8.00                                                                        
From 97 observations 2013 Jan. 6-2021 Jan. 15, mean residual 0".5.              

* Magnitudes Graph

        m1 = 12.5 + 5 log d + 20.0 log r

---------------------------------------------------------------------

The orbital elements are published on M.P.E.C. 2021-B21.
The magnitudes graphs are made with Comet for Windows.

---------------------------------------------------------------------

Copyright(C) Seiichi Yoshida (comet@aerith.net). All rights reserved.